Time,TemperatureF,DewpointF,PressureIn,WindDirection,WindDirectionDegrees,WindSpeedMPH,WindSpeedGustMPH,Humidity,HourlyPrecipIn,Conditions,Clouds,dailyrainin,SoftwareType,DateUTC
2013-10-08 00:10:00,62.6,51.5,29.80,ESE,112,4.7,-999.0,67,-99.99,,,0.00,Acu-Link.com,2013-10-08 04:10:00,
2013-10-08 00:25:00,62.6,51.1,29.80,ESE,112,3.6,-999.0,66,-99.99,,,0.00,Acu-Link.com,2013-10-08 04:25:00,
2013-10-08 00:41:00,62.6,51.1,29.80,East,90,4.0,-999.0,66,-99.99,,,0.00,Acu-Link.com,2013-10-08 04:41:00,
2013-10-08 00:56:00,60.8,49.4,29.80,ESE,112,2.0,-999.0,66,-99.99,,,0.00,Acu-Link.com,2013-10-08 04:56:00,
2013-10-08 01:11:00,60.8,49.0,29.80,WSW,247,2.0,-999.0,65,-99.99,,,0.00,Acu-Link.com,2013-10-08 05:11:00,
2013-10-08 01:26:00,60.8,49.8,29.80,South,180,2.7,-999.0,67,-99.99,,,0.00,Acu-Link.com,2013-10-08 05:26:00,
2013-10-08 01:43:00,60.8,49.4,29.80,East,90,3.6,-999.0,66,-99.99,,,0.00,Acu-Link.com,2013-10-08 05:43:00,
2013-10-08 01:59:00,60.8,49.4,29.80,NE,45,2.7,-999.0,66,-99.99,,,0.00,Acu-Link.com,2013-10-08 05:59:00,
2013-10-08 02:15:00,60.8,49.0,29.80,East,90,2.0,-999.0,65,-99.99,,,0.00,Acu-Link.com,2013-10-08 06:15:00,
2013-10-08 02:30:00,60.8,49.0,29.80,North,0,2.0,-999.0,65,-99.99,,,0.00,Acu-Link.com,2013-10-08 06:30:00,
2013-10-08 02:45:00,60.8,49.4,29.79,ESE,112,3.6,-999.0,66,-99.99,,,0.00,Acu-Link.com,2013-10-08 06:45:00,
2013-10-08 03:01:00,60.8,49.8,29.79,East,90,5.1,-999.0,67,-99.99,,,0.00,Acu-Link.com,2013-10-08 07:01:00,
2013-10-08 03:17:00,59.0,48.5,29.79,SSW,202,1.6,-999.0,68,-99.99,,,0.00,Acu-Link.com,2013-10-08 07:17:00,
2013-10-08 03:32:00,59.0,48.1,29.80,South,180,2.0,-999.0,67,-99.99,,,0.00,Acu-Link.com,2013-10-08 07:32:00,
2013-10-08 03:47:00,59.0,48.5,29.80,NNE,22,2.0,-999.0,68,-99.99,,,0.00,Acu-Link.com,2013-10-08 07:47:00,
2013-10-08 04:02:00,59.0,48.5,29.81,SSE,157,2.7,-999.0,68,-99.99,,,0.00,Acu-Link.com,2013-10-08 08:02:00,
2013-10-08 04:18:00,59.0,48.5,29.82,NNW,337,1.6,-999.0,68,-99.99,,,0.00,Acu-Link.com,2013-10-08 08:18:00,
2013-10-08 04:33:00,59.0,48.8,29.81,ESE,112,1.6,-999.0,69,-99.99,,,0.00,Acu-Link.com,2013-10-08 08:33:00,
2013-10-08 04:49:00,57.2,47.1,29.82,NNE,22,2.0,-999.0,69,-99.99,,,0.00,Acu-Link.com,2013-10-08 08:49:00,
2013-10-08 05:04:00,57.2,47.5,29.83,SE,135,1.6,-999.0,70,-99.99,,,0.00,Acu-Link.com,2013-10-08 09:04:00,
2013-10-08 05:20:00,57.2,46.7,29.82,NNE,22,4.0,-999.0,68,-99.99,,,0.00,Acu-Link.com,2013-10-08 09:20:00,
2013-10-08 05:35:00,57.2,47.1,29.82,NNE,22,2.7,-999.0,69,-99.99,,,0.00,Acu-Link.com,2013-10-08 09:35:00,
2013-10-08 05:50:00,55.4,45.8,29.85,ESE,112,2.7,-999.0,70,-99.99,,,0.00,Acu-Link.com,2013-10-08 09:50:00,
2013-10-08 06:20:00,55.4,45.8,29.88,North,0,3.6,-999.0,70,-99.99,,,0.00,Acu-Link.com,2013-10-08 10:20:00,
2013-10-08 06:50:00,55.4,45.4,29.89,NE,45,3.1,-999.0,69,-99.99,,,0.00,Acu-Link.com,2013-10-08 10:50:00,
2013-10-08 07:06:00,55.4,45.4,29.89,North,0,1.6,-999.0,69,-99.99,,,0.00,Acu-Link.com,2013-10-08 11:06:00,
2013-10-08 07:21:00,55.4,45.8,29.90,North,0,2.0,-999.0,70,-99.99,,,0.00,Acu-Link.com,2013-10-08 11:21:00,
2013-10-08 07:36:00,55.4,45.8,29.91,SSW,202,2.7,-999.0,70,-99.99,,,0.00,Acu-Link.com,2013-10-08 11:36:00,
2013-10-08 07:51:00,55.4,45.8,29.91,NE,45,1.6,-999.0,70,-99.99,,,0.00,Acu-Link.com,2013-10-08 11:51:00,
2013-10-08 08:06:00,55.4,45.8,29.92,NE,45,4.0,-999.0,70,-99.99,,,0.00,Acu-Link.com,2013-10-08 12:06:00,
2013-10-08 08:21:00,55.4,45.8,29.92,North,0,4.7,-999.0,70,-99.99,,,0.00,Acu-Link.com,2013-10-08 12:21:00,
2013-10-08 08:37:00,57.2,47.1,29.92,SSW,202,5.1,-999.0,69,-99.99,,,0.00,Acu-Link.com,2013-10-08 12:37:00,
2013-10-08 08:52:00,57.2,47.1,29.93,SSE,157,3.6,-999.0,69,-99.99,,,0.00,Acu-Link.com,2013-10-08 12:52:00,
2013-10-08 09:07:00,59.0,48.5,29.93,West,270,3.1,-999.0,68,-99.99,,,0.00,Acu-Link.com,2013-10-08 13:07:00,
2013-10-08 09:22:00,59.0,47.7,29.95,North,0,3.6,-999.0,66,-99.99,,,0.00,Acu-Link.com,2013-10-08 13:22:00,
2013-10-08 09:37:00,59.0,47.3,29.95,North,0,2.7,-999.0,65,-99.99,,,0.00,Acu-Link.com,2013-10-08 13:37:00,
2013-10-08 09:53:00,60.8,47.3,29.95,NNE,22,7.2,-999.0,61,-99.99,,,0.00,Acu-Link.com,2013-10-08 13:53:00,
2013-10-08 10:08:00,60.8,46.4,29.95,NNW,337,4.0,-999.0,59,-99.99,,,0.00,Acu-Link.com,2013-10-08 14:08:00,
2013-10-08 10:23:00,62.6,47.6,29.95,NW,315,3.6,-999.0,58,-99.99,,,0.00,Acu-Link.com,2013-10-08 14:23:00,
2013-10-08 10:38:00,62.6,46.7,29.96,North,0,4.7,-999.0,56,-99.99,,,0.00,Acu-Link.com,2013-10-08 14:38:00,
2013-10-08 10:53:00,64.4,46.4,29.96,West,270,8.7,-999.0,52,-99.99,,,0.00,Acu-Link.com,2013-10-08 14:53:00,
2013-10-08 11:09:00,64.4,46.4,-86.39,NNE,22,3.1,-999.0,52,-99.99,,,0.00,Acu-Link.com,2013-10-08 15:09:00,
2013-10-08 11:24:00,68.0,49.2,29.96,North,0,9.8,-999.0,51,-99.99,,,0.00,Acu-Link.com,2013-10-08 15:24:00,
2013-10-08 11:39:00,64.4,46.4,29.97,NW,315,6.3,-999.0,52,-99.99,,,0.00,Acu-Link.com,2013-10-08 15:39:00,
2013-10-08 11:55:00,64.4,46.4,29.96,NNE,22,8.3,-999.0,52,-99.99,,,0.00,Acu-Link.com,2013-10-08 15:55:00,
2013-10-08 12:10:00,66.2,47.5,29.95,ENE,67,4.7,-999.0,51,-99.99,,,0.00,Acu-Link.com,2013-10-08 16:10:00,
2013-10-08 12:25:00,64.4,47.4,29.95,East,90,4.7,-999.0,54,-99.99,,,0.00,Acu-Link.com,2013-10-08 16:25:00,
2013-10-08 12:41:00,66.2,48.6,29.95,WNW,292,2.7,-999.0,53,-99.99,,,0.00,Acu-Link.com,2013-10-08 16:41:00,
2013-10-08 12:56:00,64.4,45.9,29.95,ESE,112,5.6,-999.0,51,-99.99,,,0.00,Acu-Link.com,2013-10-08 16:56:00,
2013-10-08 13:11:00,64.4,45.9,29.95,SSE,157,4.0,-999.0,51,-99.99,,,0.00,Acu-Link.com,2013-10-08 17:11:00,
2013-10-08 13:26:00,66.2,47.5,29.94,SW,225,6.3,-999.0,51,-99.99,,,0.00,Acu-Link.com,2013-10-08 17:26:00,
2013-10-08 13:42:00,68.0,47.6,29.94,SSE,157,2.7,-999.0,48,-99.99,,,0.00,Acu-Link.com,2013-10-08 17:42:00,
2013-10-08 13:57:00,68.0,47.0,29.93,ESE,112,5.6,-999.0,47,-99.99,,,0.00,Acu-Link.com,2013-10-08 17:57:00,
2013-10-08 14:12:00,66.2,45.4,29.93,NNW,337,7.2,-999.0,47,-99.99,,,0.00,Acu-Link.com,2013-10-08 18:12:00,
2013-10-08 14:27:00,68.0,47.0,29.93,SW,225,5.1,-999.0,47,-99.99,,,0.00,Acu-Link.com,2013-10-08 18:27:00,
2013-10-08 14:43:00,68.0,47.6,29.93,NNW,337,5.6,-999.0,48,-99.99,,,0.00,Acu-Link.com,2013-10-08 18:43:00,
2013-10-08 14:58:00,68.0,47.6,29.93,West,270,1.6,-999.0,48,-99.99,,,0.00,Acu-Link.com,2013-10-08 18:58:00,
2013-10-08 15:13:00,64.4,46.4,29.93,NNW,337,4.0,-999.0,52,-99.99,,,0.00,Acu-Link.com,2013-10-08 19:13:00,
2013-10-08 15:29:00,64.4,46.4,29.93,WSW,247,3.1,-999.0,52,-99.99,,,0.00,Acu-Link.com,2013-10-08 19:29:00,
2013-10-08 15:44:00,64.4,46.4,29.93,NNW,337,4.7,-999.0,52,-99.99,,,0.00,Acu-Link.com,2013-10-08 19:44:00,
2013-10-08 15:59:00,64.4,45.9,29.93,SSE,157,2.0,-999.0,51,-99.99,,,0.00,Acu-Link.com,2013-10-08 19:59:00,
2013-10-08 16:14:00,64.4,45.9,29.93,South,180,2.0,-999.0,51,-99.99,,,0.00,Acu-Link.com,2013-10-08 20:14:00,
2013-10-08 16:29:00,64.4,45.9,29.94,NNW,337,4.0,-999.0,51,-99.99,,,0.00,Acu-Link.com,2013-10-08 20:29:00,
2013-10-08 16:45:00,64.4,46.4,29.93,NNE,22,2.7,-999.0,52,-99.99,,,0.00,Acu-Link.com,2013-10-08 20:45:00,
2013-10-08 17:00:00,64.4,46.9,29.94,WNW,292,2.0,-999.0,53,-99.99,,,0.00,Acu-Link.com,2013-10-08 21:00:00,
2013-10-08 17:15:00,64.4,46.4,29.94,West,270,2.7,-999.0,52,-99.99,,,0.00,Acu-Link.com,2013-10-08 21:15:00,
2013-10-08 17:30:00,66.2,48.0,29.94,NE,45,3.6,-999.0,52,-99.99,,,0.00,Acu-Link.com,2013-10-08 21:30:00,
2013-10-08 17:45:00,66.2,48.0,29.94,NNE,22,4.0,-999.0,52,-99.99,,,0.00,Acu-Link.com,2013-10-08 21:45:00,
2013-10-08 18:00:00,64.4,47.4,29.94,NNW,337,2.0,-999.0,54,-99.99,,,0.00,Acu-Link.com,2013-10-08 22:00:00,
2013-10-08 18:16:00,64.4,47.9,29.94,SSE,157,2.7,-999.0,55,-99.99,,,0.00,Acu-Link.com,2013-10-08 22:16:00,
2013-10-08 18:31:00,64.4,48.8,29.94,NW,315,3.1,-999.0,57,-99.99,,,0.00,Acu-Link.com,2013-10-08 22:31:00,
2013-10-08 18:46:00,62.6,47.6,29.94,ESE,112,2.7,-999.0,58,-99.99,,,0.00,Acu-Link.com,2013-10-08 22:46:00,
2013-10-08 19:02:00,62.6,48.1,29.95,NNE,22,1.6,-999.0,59,-99.99,,,0.00,Acu-Link.com,2013-10-08 23:02:00,
2013-10-08 19:17:00,62.6,49.0,29.95,NE,45,1.1,-999.0,61,-99.99,,,0.00,Acu-Link.com,2013-10-08 23:17:00,
2013-10-08 19:32:00,60.8,48.5,29.96,ENE,67,1.1,-999.0,64,-99.99,,,0.00,Acu-Link.com,2013-10-08 23:32:00,
2013-10-08 19:47:00,60.8,47.7,29.96,West,270,3.1,-999.0,62,-99.99,,,0.00,Acu-Link.com,2013-10-08 23:47:00,
2013-10-08 20:02:00,60.8,47.7,29.96,West,270,1.1,-999.0,62,-99.99,,,0.00,Acu-Link.com,2013-10-09 00:02:00,
2013-10-08 20:18:00,60.8,47.3,29.96,NW,315,3.6,-999.0,61,-99.99,,,0.00,Acu-Link.com,2013-10-09 00:18:00,
2013-10-08 20:33:00,60.8,47.3,29.97,WNW,292,5.1,-999.0,61,-99.99,,,0.00,Acu-Link.com,2013-10-09 00:33:00,
2013-10-08 20:48:00,60.8,47.3,29.99,East,90,3.1,-999.0,61,-99.99,,,0.00,Acu-Link.com,2013-10-09 00:48:00,
2013-10-08 21:03:00,60.8,46.8,29.99,NNW,337,2.7,-999.0,60,-99.99,,,0.00,Acu-Link.com,2013-10-09 01:03:00,
2013-10-08 21:18:00,60.8,46.4,29.98,South,180,1.6,-999.0,59,-99.99,,,0.00,Acu-Link.com,2013-10-09 01:18:00,
2013-10-08 21:33:00,60.8,45.5,29.99,ESE,112,3.6,-999.0,57,-99.99,,,0.00,Acu-Link.com,2013-10-09 01:33:00,
2013-10-08 21:49:00,60.8,45.0,29.99,NE,45,4.0,-999.0,56,-99.99,,,0.00,Acu-Link.com,2013-10-09 01:49:00,
2013-10-08 22:04:00,60.8,45.0,29.99,NNE,22,1.6,-999.0,56,-99.99,,,0.00,Acu-Link.com,2013-10-09 02:04:00,
2013-10-08 22:19:00,60.8,45.0,29.99,NNE,22,7.2,-999.0,56,-99.99,,,0.00,Acu-Link.com,2013-10-09 02:19:00,
2013-10-08 22:34:00,59.0,43.8,29.99,ESE,112,4.7,-999.0,57,-99.99,,,0.00,Acu-Link.com,2013-10-09 02:34:00,
2013-10-08 22:49:00,59.0,43.3,29.99,South,180,3.1,-999.0,56,-99.99,,,0.00,Acu-Link.com,2013-10-09 02:49:00,
2013-10-08 23:04:00,59.0,43.3,29.99,NW,315,2.0,-999.0,56,-99.99,,,0.00,Acu-Link.com,2013-10-09 03:04:00,
2013-10-08 23:19:00,59.0,42.9,29.99,West,270,4.7,-999.0,55,-99.99,,,0.00,Acu-Link.com,2013-10-09 03:19:00,
2013-10-08 23:34:00,59.0,43.8,29.99,North,0,6.3,-999.0,57,-99.99,,,0.00,Acu-Link.com,2013-10-09 03:34:00,
2013-10-08 23:49:00,59.0,44.2,29.99,NNW,337,3.6,-999.0,58,-99.99,,,0.00,Acu-Link.com,2013-10-09 03:49:00,